Wind_Speed
23 24 26 27 27 27 27 28 29 29 29 29 28 28 27 28 29 26 24 25 25 25 25 25 25 26 26 27 28 29 30 31 32 33 33 34 35 36 36 36 36 36 36
27 28 29 30 31 31 32 33 33 33 33 32 32 31 30 31 31 30 28 29 29 29 28 28 29 29 30 30 31 32 33 34 35 36 37 38 39 40 40 40 41 41 40
29 31 31 32 33 32 34 35 35 35 35 35 35 34 33 34 34 33 32 32 32 32 31 32 32 32 33 34 35 35 36 38 39 40 41 42 43 43 43 44 44 44 44
30 31 31 32 33 32 32 33 33 33 34 35 35 35 33 34 34 34 35 35 35 34 34 35 36 36 36 36 37 38 39 40 42 43 44 45 46 47 47 47 47 48 48
31 32 33 33 33 33 31 30 30 29 29 31 33 34 34 34 33 34 35 37 37 37 36 36 36 37 37 38 40 41 41 43 44 46 47 49 50 50 51 51 51 52 52
33 34 34 34 34 32 30 29 29 28 26 26 28 30 31 32 32 34 34 36 38 37 37 36 35 36 38 40 42 43 45 46 48 49 51 53 54 55 55 56 56 56 56
35 35 35 35 34 31 30 29 28 27 25 24 25 25 26 28 30 32 33 34 34 34 35 36 37 37 39 41 43 46 48 50 52 54 56 57 59 60 60 61 61 61 61
39 37 37 37 34 31 29 28 28 27 26 26 25 25 25 26 27 29 32 33 34 35 36 38 40 42 45 47 49 51 53 55 57 59 61 63 64 65 66 66 67 67 67
41 41 40 38 35 33 31 29 29 29 28 28 28 28 29 29 30 32 34 35 37 39 41 43 46 48 50 52 55 57 59 60 62 64 66 68 69 70 71 72 72 72 72
43 42 42 39 36 34 32 31 31 31 31 31 32 33 34 35 35 35 37 39 41 44 46 48 51 54 56 59 61 64 65 66 67 69 71 73 74 75 75 76 76 75 75
44 43 42 41 38 36 35 34 34 34 34 35 36 37 39 40 41 42 43 45 48 51 53 55 57 59 61 64 66 68 69 70 71 73 74 75 76 77 77 77 77 76 76
45 45 44 41 40 39 38 37 37 37 38 39 40 41 43 44 46 48 49 51 53 56 59 61 63 65 67 69 71 72 73 74 75 76 76 77 76 76 76 76 75 75 75
46 45 44 43 42 41 41 41 41 41 42 43 44 45 47 48 50 53 54 56 58 59 62 65 67 70 72 74 75 75 76 75 75 76 75 75 74 74 73 73 72 72 71
46 46 45 45 44 44 44 44 44 44 45 46 47 49 50 52 54 56 58 60 61 63 65 68 70 72 73 75 76 76 76 76 75 74 73 72 71 71 70 70 70 69 68
48 49 49 48 48 47 47 47 48 48 49 50 51 52 53 55 57 59 61 63 64 65 66 68 71 72 73 73 74 74 73 72 71 71 70 69 68 68 67 67 67 67 66
51 51 51 51 51 51 50 51 51 51 52 53 54 55 56 58 59 61 62 64 65 66 66 67 69 70 70 70 69 69 69 68 68 67 66 65 64 64 63 62 62 61 60
54 54 54 54 54 53 54 54 54 55 55 55 56 57 58 59 60 61 62 63 64 65 65 65 66 67 66 66 65 65 65 63 62 60 59 57 56 55 54 54 53 52 52
56 56 56 56 56 56 56 56 57 57 57 57 57 58 58 58 59 59 60 61 61 62 62 61 61 62 62 62 61 61 59 58 56 54 53 51 49 48 47 46 45 45 45
57 58 57 57 57 57 57 57 57 57 57 57 57 57 57 57 57 57 58 58 59 59 59 58 58 57 57 57 56 54 53 51 50 48 46 45 43 42 41 41 41 41 41
56 57 57 57 57 57 58 58 57 57 56 56 55 55 55 55 55 55 55 55 56 55 55 55 53 52 51 50 48 47 45 44 43 42 41 40 39 39 38 38 39 39 38
55 55 56 57 57 57 57 57 56 55 54 54 54 54 53 53 53 53 53 52 53 52 51 49 47 45 44 43 42 40 39 38 38 38 37 37 36 36 36 36 36 35 35
54 55 55 55 55 55 55 54 54 53 53 52 51 51 51 51 50 50 49 49 48 47 44 42 40 38 37 36 35 35 35 35 33 34 33 32 32 32 32 32 31 31 30
53 53 53 53 53 52 52 52 51 51 50 49 49 49 48 48 46 46 45 44 42 40 37 35 33 32 31 31 31 31 31 31 30 29 28 28 28 28 28 28 27 27 26
50 50 51 50 50 49 49 49 48 47 47 46 46 45 44 43 42 40 38 36 34 32 29 28 27 27 27 28 28 28 28 27 27 27 26 25 25 25 25 24 23 22 22
49 48 48 48 47 47 46 46 45 44 43 43 42 41 39 37 35 33 31 28 26 24 23 23 23 24 25 25 26 26 26 26 25 26 25 24 23 22 22 21 19 19 19
47 46 46 45 44 43 43 42 41 40 40 39 37 35 32 29 27 25 22 20 19 19 19 20 22 23 23 23 24 25 25 25 24 23 23 22 20 19 19 19 18 16 15
Wind_Direction
333 330 327 324 318 313 308 303 298 295 289 281 275 273 273 275 277 275 271 270 270 271 271 271 270 270 271 272 273 274 275 275 275 276 276 276 277 277 276 276 276 276 275
332 331 329 325 320 316 311 304 297 291 287 281 275 272 272 273 274 275 272 271 271 271 272 273 273 273 274 275 276 276 277 277 278 277 278 278 277 277 276 276 275 275 274
332 333 334 330 325 318 314 308 302 294 288 284 278 275 272 272 271 272 273 271 271 271 273 273 274 275 276 277 278 279 279 279 279 279 279 278 278 277 277 276 275 274 273
332 333 333 333 333 328 321 315 308 300 293 288 283 280 276 274 273 272 273 274 273 271 271 272 273 275 276 278 279 279 280 280 280 279 279 279 278 278 277 277 275 274 273
327 329 329 329 332 333 328 321 317 311 301 294 287 283 280 276 273 272 273 275 276 276 275 272 273 275 277 279 279 279 280 280 280 279 279 278 278 277 277 276 275 274 273
319 321 324 326 328 329 327 325 324 320 311 300 294 289 284 279 277 277 277 277 276 276 277 276 275 276 278 279 280 280 281 281 280 279 278 278 277 276 275 274 273 273 272
311 314 317 320 323 325 323 324 325 325 320 312 303 297 292 287 284 281 280 279 279 278 278 278 279 278 278 279 280 280 280 280 279 278 277 276 276 275 274 273 273 272 271
305 308 312 314 316 317 318 318 320 320 318 316 309 303 299 295 291 288 287 284 282 280 280 279 279 279 281 281 280 279 278 277 277 277 276 275 275 274 274 273 272 271 271
299 303 306 307 309 310 310 312 313 313 313 311 308 304 300 297 292 291 290 286 283 282 280 279 279 279 279 279 279 279 278 277 277 276 276 275 275 274 274 273 273 272 271
294 298 300 302 303 303 304 306 307 307 306 304 302 300 298 295 293 292 289 286 286 284 281 280 280 280 280 279 279 279 279 278 277 277 277 276 276 275 275 274 273 273 272
292 294 297 299 299 299 299 300 301 301 301 300 299 297 296 295 293 292 290 287 286 285 284 282 281 280 280 280 280 280 280 279 278 278 278 278 277 277 276 275 275 273 272
291 293 295 295 296 296 295 296 297 297 298 297 296 295 294 293 291 291 290 288 286 286 286 285 284 283 282 282 282 283 282 282 281 280 280 279 279 278 277 276 275 274 272
289 291 292 292 293 293 293 294 294 295 295 295 294 293 292 291 290 289 289 288 286 286 286 285 285 284 284 284 284 284 285 284 283 283 282 281 281 280 279 278 276 275 273
288 290 290 290 291 291 292 293 293 293 294 293 292 291 290 289 288 288 287 286 285 285 285 285 285 285 286 286 286 287 287 287 286 285 284 283 282 281 280 278 277 275 273
287 287 288 288 289 290 291 292 292 292 292 292 291 290 289 287 287 286 286 285 285 284 285 286 286 286 287 287 287 287 288 288 287 286 285 284 283 281 280 278 276 274 273
286 286 287 287 289 289 290 291 292 291 291 290 290 289 288 287 287 286 286 286 286 286 286 286 286 287 288 288 288 288 288 288 288 287 286 285 284 283 281 279 277 275 272
285 286 286 287 289 289 290 291 292 291 291 290 290 289 289 288 288 288 287 287 288 288 288 288 288 288 289 289 289 289 289 289 288 288 287 286 285 284 282 280 278 275 272
283 284 285 287 289 289 290 291 291 292 292 292 291 291 290 290 290 289 289 289 289 290 290 290 290 290 290 290 290 290 290 290 289 288 287 286 285 283 282 280 278 276 273
282 283 285 287 288 289 290 290 291 292 292 292 292 292 292 292 292 291 291 291 291 291 291 291 291 291 291 291 291 291 292 291 291 290 289 287 286 284 282 280 278 276 273
283 285 286 287 289 290 290 291 292 292 293 293 293 293 293 293 293 293 292 292 292 292 293 293 293 293 293 293 293 294 294 294 294 293 292 290 288 286 283 281 279 277 274
284 286 287 288 290 291 291 292 292 293 293 293 293 293 293 294 294 293 293 293 293 294 294 295 295 295 295 296 297 298 299 299 298 296 295 293 291 289 287 284 281 278 275
287 288 289 290 290 291 291 292 292 293 293 294 294 294 294 294 294 294 294 295 296 296 297 297 297 298 299 301 303 304 304 303 301 300 299 297 295 293 291 288 284 280 276
289 289 289 290 291 291 292 293 294 294 294 294 294 294 295 295 295 295 296 297 298 298 299 300 301 302 305 306 308 309 310 310 309 305 304 302 300 299 296 293 288 282 278
290 290 291 291 292 292 293 293 294 294 295 295 295 296 296 296 296 297 298 299 300 301 303 306 308 310 312 314 316 317 318 317 314 312 312 310 306 305 302 299 294 286 280
292 291 292 292 292 293 293 294 294 295 295 296 296 297 297 297 298 298 299 301 303 306 309 312 315 318 320 322 323 324 324 323 320 317 316 314 312 311 309 306 301 293 286
293 293 293 293 293 294 294 295 295 296 296 297 297 297 297 297 298 300 302 304 307 311 315 319 322 325 328 330 330 331 331 330 328 324 322 320 319 318 315 312 308 301 292
Height
5884 5883 5882 5880 5878 5876 5874 5872 5871 5870 5869 5868 5867 5867 5866 5865 5864 5866 5867 5866 5866 5866 5866 5866 5865 5865 5865 5865 5865 5864 5864 5864 5864 5863 5863 5863 5862 5862 5862 5862 5862 5862 5862
5880 5879 5877 5875 5872 5870 5868 5866 5864 5863 5862 5861 5860 5860 5861 5860 5859 5859 5861 5861 5860 5860 5860 5860 5859 5859 5859 5858 5858 5857 5857 5856 5856 5855 5855 5854 5853 5853 5853 5853 5852 5853 5853
5876 5875 5872 5870 5866 5864 5861 5859 5857 5855 5854 5854 5853 5854 5854 5854 5854 5853 5853 5854 5854 5854 5854 5853 5853 5852 5851 5851 5850 5849 5849 5848 5847 5846 5845 5844 5843 5843 5843 5843 5842 5842 5842
5872 5871 5868 5865 5862 5858 5855 5852 5850 5848 5847 5846 5846 5846 5846 5847 5847 5847 5846 5846 5846 5847 5847 5846 5845 5844 5844 5843 5842 5841 5840 5838 5837 5836 5835 5834 5833 5832 5831 5831 5831 5831 5831
5868 5867 5864 5861 5858 5854 5851 5848 5845 5842 5840 5839 5839 5839 5839 5839 5840 5840 5840 5839 5838 5838 5839 5839 5838 5836 5835 5834 5833 5831 5830 5828 5827 5825 5824 5822 5821 5820 5819 5818 5818 5818 5818
5864 5862 5859 5857 5853 5850 5846 5843 5840 5837 5835 5833 5833 5832 5832 5832 5832 5832 5832 5831 5831 5830 5829 5829 5829 5828 5827 5825 5823 5821 5819 5817 5815 5814 5811 5810 5808 5807 5806 5805 5804 5804 5804
5859 5857 5855 5852 5849 5846 5842 5839 5836 5833 5831 5829 5827 5826 5826 5825 5825 5825 5824 5824 5822 5821 5820 5819 5818 5817 5816 5815 5813 5810 5807 5805 5802 5800 5798 5795 5794 5792 5790 5789 5788 5788 5788
5853 5850 5849 5846 5844 5841 5838 5835 5832 5829 5826 5824 5822 5821 5820 5820 5818 5818 5816 5815 5814 5813 5811 5810 5808 5806 5804 5801 5799 5797 5795 5792 5789 5785 5783 5780 5778 5776 5774 5772 5771 5770 5770
5846 5844 5842 5840 5838 5835 5833 5830 5827 5824 5821 5819 5817 5816 5814 5813 5811 5810 5808 5806 5804 5803 5801 5798 5796 5793 5791 5788 5785 5782 5780 5777 5774 5770 5766 5762 5760 5757 5755 5754 5752 5751 5751
5838 5836 5835 5833 5831 5829 5826 5824 5821 5818 5816 5813 5811 5808 5806 5804 5803 5801 5799 5796 5794 5792 5789 5786 5783 5779 5775 5772 5769 5765 5762 5760 5757 5752 5747 5743 5740 5738 5735 5733 5732 5731 5730
5831 5828 5827 5826 5824 5822 5819 5816 5814 5811 5808 5805 5803 5800 5797 5794 5792 5790 5788 5785 5781 5778 5775 5771 5768 5764 5760 5756 5752 5748 5744 5740 5737 5733 5728 5724 5720 5717 5714 5712 5710 5709 5708
5822 5821 5819 5817 5815 5813 5810 5808 5805 5802 5799 5796 5793 5790 5787 5784 5780 5777 5775 5772 5768 5764 5759 5755 5750 5746 5742 5737 5733 5729 5725 5720 5716 5711 5707 5703 5699 5695 5692 5689 5687 5686 5686
5814 5812 5810 5808 5806 5803 5801 5798 5795 5792 5789 5786 5782 5779 5775 5771 5768 5764 5760 5757 5754 5750 5744 5739 5733 5727 5722 5717 5712 5708 5703 5699 5694 5690 5685 5681 5677 5673 5670 5667 5665 5664 5663
5804 5802 5800 5798 5796 5793 5790 5787 5784 5781 5777 5774 5770 5766 5762 5758 5754 5749 5745 5742 5738 5734 5729 5722 5715 5709 5704 5697 5691 5687 5682 5677 5672 5668 5664 5659 5656 5652 5648 5645 5643 5642 5641
5794 5792 5790 5787 5785 5782 5778 5775 5772 5769 5765 5761 5757 5753 5749 5744 5739 5735 5730 5725 5721 5718 5714 5706 5698 5691 5686 5680 5673 5668 5663 5657 5652 5647 5642 5639 5635 5631 5628 5625 5622 5621 5620
5783 5781 5778 5775 5772 5769 5766 5762 5759 5755 5751 5747 5743 5739 5734 5729 5724 5719 5714 5708 5703 5699 5696 5689 5681 5674 5668 5662 5655 5650 5644 5639 5634 5628 5623 5619 5615 5611 5608 5604 5602 5600 5599
5771 5769 5766 5762 5759 5756 5752 5749 5745 5741 5737 5733 5728 5724 5719 5714 5709 5703 5697 5692 5686 5680 5677 5672 5664 5657 5651 5645 5639 5632 5627 5621 5617 5611 5606 5601 5597 5593 5589 5586 5584 5582 5581
5759 5756 5752 5749 5746 5742 5739 5735 5731 5727 5722 5718 5713 5708 5704 5699 5693 5687 5682 5676 5670 5664 5659 5655 5649 5642 5635 5628 5623 5617 5611 5605 5600 5596 5591 5586 5582 5578 5575 5572 5569 5567 5566
5746 5742 5739 5736 5732 5728 5725 5720 5716 5712 5707 5703 5698 5693 5689 5684 5678 5672 5667 5661 5655 5649 5643 5638 5633 5626 5620 5613 5607 5602 5596 5590 5585 5581 5576 5572 5568 5565 5561 5558 5556 5554 5553
5732 5729 5726 5722 5718 5714 5710 5705 5701 5697 5693 5688 5683 5679 5674 5669 5664 5658 5652 5646 5640 5635 5629 5623 5618 5612 5606 5599 5594 5588 5584 5578 5573 5568 5563 5559 5556 5552 5549 5546 5544 5542 5540
5718 5715 5711 5707 5703 5699 5695 5691 5687 5683 5678 5674 5669 5664 5659 5655 5649 5644 5638 5632 5627 5621 5615 5610 5604 5599 5594 5588 5582 5577 5572 5567 5562 5556 5552 5548 5544 5541 5537 5534 5532 5530 5529
5704 5701 5697 5693 5689 5685 5681 5677 5673 5669 5664 5660 5655 5651 5646 5641 5637 5630 5625 5619 5614 5608 5603 5598 5593 5588 5583 5578 5573 5567 5562 5557 5553 5548 5542 5538 5534 5530 5526 5523 5521 5519 5518
5690 5686 5683 5679 5675 5670 5667 5663 5659 5655 5651 5647 5642 5637 5632 5628 5624 5618 5613 5608 5602 5597 5593 5589 5584 5580 5575 5571 5566 5560 5554 5548 5543 5538 5534 5530 5525 5522 5518 5514 5511 5510 5508
5676 5672 5668 5665 5661 5657 5653 5649 5646 5642 5638 5634 5629 5625 5620 5616 5611 5607 5602 5598 5593 5589 5585 5581 5578 5573 5569 5564 5558 5553 5547 5542 5537 5531 5527 5523 5518 5514 5510 5507 5504 5502 5500
5661 5658 5654 5651 5648 5644 5640 5636 5633 5629 5626 5622 5617 5614 5610 5605 5601 5597 5594 5590 5587 5583 5580 5576 5573 5568 5563 5558 5553 5548 5542 5537 5532 5526 5521 5517 5513 5508 5504 5501 5498 5495 5494
5647 5644 5641 5637 5634 5631 5627 5624 5621 5617 5614 5610 5607 5603 5600 5597 5594 5590 5588 5585 5583 5580 5576 5573 5569 5564 5560 5554 5549 5544 5538 5532 5527 5522 5517 5512 5507 5504 5500 5496 5493 5491 5489